Location: Tamazert
(32.6352°N, 5.2072°W)
Time: 05:23:03
(UTC+00:00)

Vanguard 2 - Pass Details

Date: 12 October 2022
Orbit: 553 x 2933 km, 32.9° (Epoch: 26 November)

Event Time Altitude Azimuth Distance (km) Brightness Sun altitude
Rises 11:09:05 0° 256° (WSW) 3,451 10.8 47.6°
Reaches altitude 10° 11:11:10 10° 256° (WSW) 2,715 10.4 47.7°
Maximum altitude 11:17:49 84° 169° (S) 1,367 9.9 48.2°
Drops below altitude 10° 11:29:25 10° 82° (E) 4,534 11.6 48.9°
Sets 11:33:53 0° 82° (E) 5,899 12.1 49.1°
